Regional Weather Roundup
Issued by NWS

Home | Current Version | Previous Version | Text Only | Print | Product List | Glossary Off
Versions: 1 2 3 4 5 6 7 8 9 10 11 12 13 14 15 16 17 18 19 20 21 22 23 24 25 26 27 28 29 30 31 32 33 34 35 36 37 38 39 40 41 42 43 44 45 46 47 48 49 50

000
ASUS43 KLOT 170203
RWRIL

ILLINOIS REGIONAL WEATHER ROUNDUP
NATIONAL WEATHER SERVICE CHICAGO/ROMEOVILLE IL
900 PM CDT WED AUG 16 2017

NOTE: "FAIR" INDICATES FEW OR NO CLOUDS BELOW 12,000 FEET WITH NO
SIGNIFICANT WEATHER AND/OR OBSTRUCTIONS TO VISIBILITY.

* THESE STATIONS ARE NOT UNDER NWS QUALITY CONTROL. THEY ALSO MAY NOT
  REPORT WEATHER SUCH AS PRECIPITATION OR FOG.

ILZ001-002-007-009-015-016-024-170300-
NORTHWEST ILLINOIS

CITY           SKY/WX    TMP DP  RH WIND       PRES   REMARKS
MOLINE         PTCLDY    78  72  81 S8        29.79S HX  80
STERLING*      CLOUDY    76  73  91 VRB3      29.82S
SAVANNA*       CLOUDY    76  73  90 S3        29.80F
$$

ILZ003-004-008-010-011-017-018-170300-
NORTH CENTRAL ILLINOIS

CITY           SKY/WX    TMP DP  RH WIND       PRES   REMARKS
ROCKFORD       CLOUDY    76  72  87 SE17      29.84S
FREEPORT*      CLOUDY    74  73  97 S12       29.84R
ROCHELLE*      CLOUDY    75  73  93 SE12      29.85S
PERU*          RAIN      76  72  86 S9        29.85S
$$

ILZ005-006-012>014-019>023-170300-
NORTHEAST ILLINOIS

CITY           SKY/WX    TMP DP  RH WIND       PRES   REMARKS
CHICAGO-OHARE  LGT RAIN  78  73  84 SE9       29.88R HX  81
CHICAGO-MIDWAY CLOUDY    81  73  76 S8        29.88R HX  86
AURORA         CLOUDY    77  74  90 SE6       29.88R
LANSING*       CLOUDY    79  70  74 S6        29.90R HX  81
JOLIET*        CLOUDY    78  75  90 S3        29.88R HX  81
WAUKEGAN       LGT RAIN  73  73 100 SE3       29.87S FOG
DUPAGE AIRPORT CLOUDY    76  75  97 SE8       29.87S FOG
KANKAKEE*      CLOUDY    75  72  88 SE5       29.89F
WHEELING       CLOUDY    76  75  97 SE5       29.89S
MORRIS*        CLOUDY    77  73  88 SE7       29.86S
NORTHERLY ISL    N/A     75  71  87 CALM        N/A
$$

LMZ740>746-170300-
SOUTHERN LAKE MICHIGAN

STATION/POSITION SKY/WX   TEMP    WIND        PRES    VSBY  WAVE
                          AIR SEA DIR/SP/G                  HT/PER
                          (F)     (DEG/KT/KT) (MB)    (MI)  (FT/S)
SOUTHERN BUOY              75 73   70/ 10/ 10 1011.7          1
WILMETTE HARBOR            75 73  120/  6/  8   N/A           1/ 3
HARRISON CRIB              77     120/  6/  6   N/A
CALUMET HARBOR             81     160/  7/  8 1011.4F
BURNS HARBOR               83     180/  5/ 13 1012.5
MICHIGAN CITY              81     150/  6/  9   N/A
MICHIGAN CITY 6N           78 76  160/  4/  6   N/A           1
ST. JOSEPH                 79 75  180/  6/  8 1012.1R         1
$$

ILZ025>027-034>036-040-047-049-050-058-095>099-170300-
WEST-CENTRAL ILLINOIS

CITY           SKY/WX    TMP DP  RH WIND       PRES   REMARKS
QUINCY         MOCLDY    73  68  84 S12       29.86S
GALESBURG*     MOCLDY    76  73  93 S8        29.83F
MACOMB*        PTCLDY    76  70  82 S12G17    29.85F
JACKSONVILLE*  CLOUDY    72  69  93 SW9       29.88S
PITTSFIELD*    MOCLDY    73  70  91 S7        29.89S
$$

ILZ028>032-037-038-041>044-048-051>054-059>061-170300-
CENTRAL ILLINOIS

CITY           SKY/WX    TMP DP  RH WIND       PRES   REMARKS
PONTIAC        CLOUDY    77  77  99 CALM      29.88R
BLOOMINGTON    CLOUDY    77  74  90 SW16      29.91R
DECATUR        CLOUDY    75  71  87 SW7       29.90R
PEORIA         CLOUDY    77  74  90 SW14G23   29.86R
LACON*         CLOUDY    78  74  89 S9        29.84R HX  80
LINCOLN*       CLOUDY    75  72  88 S3        29.89R
SPRINGFIELD    CLOUDY    76  72  87 SW9       29.89R
TAYLORVILLE    DRIZZLE   73  72  98 W12G20    29.91R
$$

ILZ033-039-045-046-055>057-062-063-170300-
EAST-CENTRAL ILLINOIS

CITY           SKY/WX    TMP DP  RH WIND       PRES   REMARKS
CHAMPAIGN      CLOUDY    79  74  84 S14G22    29.88F HX  82
RANTOUL*       CLOUDY    79  76  91 SE8       29.89S HX  83
MATTOON        LGT RAIN  73  72  96 S10       29.89F
PARIS*         CLOUDY    77  75  92 SE7       29.91F
$$

ILZ079-100>102-170300-
SOUTHWEST ILLINOIS

CITY           SKY/WX    TMP DP  RH WIND       PRES   REMARKS
BELLEVILLE     LGT RAIN  73  71  92 SW8       29.94R
CAHOKIA*       LGT RAIN  73  68  84 S7        29.91S
SPARTA*        DRIZZLE   72  70  94 SW5       29.96S
$$

ILZ064>066-069>071-074>076-080>082-084>086-088>090-092>094-170300-
SOUTH-CENTRAL ILLINOIS

CITY           SKY/WX    TMP DP  RH WIND       PRES   REMARKS
CARBONDALE     HVY RAIN  73  73 100 W12       29.98R FOG
CAIRO*         CLOUDY    78  75  90 CALM      29.96R HX  81
EFFINGHAM*     CLOUDY    73  73  99 S5        29.92F
MARION         CLOUDY    77  75  94 NW6       29.99R
MT. VERNON     CLOUDY    73  71  93 SW3       29.94F
CENTRALIA*     CLOUDY    73  73  98 S6        29.92F
SALEM*         PTCLDY    74  71  90 S6        29.93S
METROPOLIS*    CLOUDY    80  76  85 CALM      29.97R HX  86
$$

ILZ067-068-072-073-078-083-087-091-170300-
SOUTHEAST ILLINOIS

CITY           SKY/WX    TMP DP  RH WIND       PRES   REMARKS
LAWRENCEVILLE  CLOUDY    79  75  87 S7        29.94R HX  83
FLORA*         CLOUDY    73  72  94 S7        29.92F
FAIRFIELD*     CLOUDY    73  73 100 CALM      29.93F
HARRISBURG*    CLOUDY    77  73  85 W3        29.96R
ROBINSON*      TSTM      75  72  90 W10G28    29.96R
CARMI*         CLOUDY    77  73  90 W6        29.95R
$$

ABBREVIATIONS USED IN REMARKS
   TC - TEMPERATURE IN CELSIUS
  WCI - WIND CHILL INDEX
   HX - HEAT INDEX
  VSB - VISIBILITY
$$





USA.gov is the U.S. government's official web portal to all federal, state and local government web resources and services.